NIEUW!!! Volg onze weer- en natuurfoto's op Instagram @ weerstationmaaseik.be

WS Maaseik 1 Meer informatie WS Maaseik 1


WS Maaseik 2 Meer informatie WS Maaseik 2


Regen radar Meer informatie rain snow radar


Bezoek onze andere website:

Vorige versie
weerstation Maaseik


Bezoek ook eens deze sites:

Weerstation Geleen

Weerstation Luyksgestel



Het weer levert geen direct gevaar op.    Er zijn geen waarschuwingen afgegeven.

15 daagse weersverwachting Edinburgh (GB)

  • Overzicht
  • Per uur
  • 15 dagen
  • Extra
  • Vergelijk
  • Kaarten
  • Dagkaart
  • Meer »
  • Info
  • Statistieken
  • Directe link
    Temp 6h Neerslag Wind  
 07:02     19:09    Daglengte: 12:07 Morgen
01:00
13°
19.9 mm
1
07:00
13°
2.7 mm
1
13:00
16°
 
4
19:00
15°
 
3
 07:04     19:07    Daglengte: 12:03 Dinsdag 24 Sep
01:00
14°
7.0 mm
4
07:00
14°
10.6 mm
3
13:00
16°
12.2 mm
4
19:00
14°
13.5 mm
3
 07:06     19:04    Daglengte: 11:58 Woensdag 25 Sep
01:00
13°
18.8 mm
2
07:00
13°
20.2 mm
2
13:00
15°
24.6 mm
2
19:00
15°
27.0 mm
1
Locatie info
Region: Scotland
Latitude: 55.9543°N
Longitude: -3.2019°E
66 masl
Postcode: EH2 3
Temp/Neerslag /Baro Onweer/Dauwpunt
    Temp Baro 1h Neerslag Dauwpunt Wind UV Bewolking  
 07:00     19:12    Daglengte: 12:12 Vandaag
23:00
14°
1001.9 hPa 4.0 mm
82%
13.3°
2
Windvlaag: -1 m/s
88%
 07:02     19:09    Daglengte: 12:07 Morgen
00:00
13°
1002.0 hPa 2.6 mm
82%
13.2°
1
Windvlaag: -1 m/s
90%
01:00
13°
1002.1 hPa 4.4 mm
82%
13.2°
1
Windvlaag: -0.7 m/s
91%
02:00
13°
1002.0 hPa 2.7 mm
79%
13.2°
2
Windvlaag: -0.2 m/s
89%
03:00
14°
1002.1 hPa
78%
13.3°
1
Windvlaag: -0.1 m/s
90%
04:00
14°
1002.0 hPa
25%
13.3°
1
Windvlaag: 0.3 m/s
90%
05:00
14°
1002.2 hPa
23%
13.2°
1
Windvlaag: 0.2 m/s
86%
06:00
14°
1002.5 hPa
20%
12.9°
1
Windvlaag: 0.2 m/s
81%
07:00
13°
1003.0 hPa
14%
12.5°
1
Windvlaag: 0.3 m/s
77%
08:00
13°
1003.5 hPa
14%
12.6°
1
Windvlaag: 0.7 m/s
84%
09:00
14°
1003.8 hPa
14%
12.8°
1
Windvlaag: 0.2 m/s
86%
10:00
15°
1004.0 hPa
22%
13.1°
1
Windvlaag: 0.4 m/s
70%
11:00
15°
1004.0 hPa
20%
13.0°
2
Windvlaag: 0.4 m/s
56%
12:00
16°
1004.0 hPa
68%
12.7°
2
Windvlaag: 0.7 m/s
32%
13:00
16°
1004.2 hPa
74%
12.6°
4
Windvlaag: 2.9 m/s
21%
14:00
17°
1004.4 hPa
82%
12.0°
4
Windvlaag: 3.2 m/s
6%
15:00
17°
1004.5 hPa
82%
10.8°
4
Windvlaag: 2.8 m/s
11%
16:00
16°
1004.4 hPa
76%
10.2°
4
Windvlaag: 2.8 m/s
50%
17:00
16°
1004.3 hPa
28%
10.2°
4
Windvlaag: 2.9 m/s
70%
18:00
16°
1004.3 hPa
14%
10.2°
3
Windvlaag: 3 m/s
70%
19:00
15°
1004.2 hPa
14%
10.1°
3
Windvlaag: 2.4 m/s
77%
20:00
14°
1004.0 hPa
14%
9.9°
3
Windvlaag: 1.4 m/s
81%
21:00
14°
1003.8 hPa
14%
9.8°
3
Windvlaag: 1.8 m/s
74%
22:00
14°
1003.5 hPa
18%
10.0°
4
Windvlaag: 2.1 m/s
72%
23:00
14°
1003.0 hPa 1.9 mm
15%
10.4°
4
Windvlaag: 2.2 m/s
73%
 07:04     19:07    Daglengte: 12:03 Dinsdag 24 Sep
00:00
14°
1002.3 hPa 2.2 mm
14%
10.4°
4
Windvlaag: 1.9 m/s
89%
01:00
14°
1001.6 hPa 2.8 mm
64%
10.9°
4
Windvlaag: 1.9 m/s
80%
02:00
14°
1001.0 hPa
82%
11.2°
4
Windvlaag: 2.1 m/s
75%
03:00
14°
1000.2 hPa
82%
11.4°
4
Windvlaag: 2.2 m/s
64%
04:00
14°
999.7 hPa 2.4 mm
82%
11.8°
4
Windvlaag: 1.8 m/s
77%
05:00
13°
998.9 hPa 2.0 mm
82%
12.0°
4
Windvlaag: 1.4 m/s
88%
06:00
14°
998.5 hPa 2.7 mm
70%
12.2°
3
Windvlaag: 1.2 m/s
87%
07:00
14°
998.2 hPa 3.5 mm
28%
12.5°
3
Windvlaag: 1.1 m/s
86%
08:00
14°
998.4 hPa 3.8 mm
31%
12.6°
3
Windvlaag: 0.7 m/s
76%
09:00
14°
998.0 hPa 3.6 mm
76%
12.9°
3
Windvlaag: 0.4 m/s
82%
10:00
15°
997.8 hPa
78%
13.4°
3
Windvlaag: 0.5 m/s
81%
11:00
15°
997.6 hPa 2.0 mm
77%
13.7°
3
Windvlaag: 0.5 m/s
82%
12:00
16°
997.3 hPa
80%
13.8°
3
Windvlaag: 0.3 m/s
81%
13:00
16°
997.1 hPa 2.7 mm
82%
13.9°
4
Windvlaag: -0.4 m/s
83%
14:00
16°
996.8 hPa 2.6 mm
82%
13.9°
4
Windvlaag: -0.6 m/s
81%
15:00
16°
996.4 hPa 2.7 mm
82%
14.1°
4
Windvlaag: -0.5 m/s
88%
16:00
15°
995.8 hPa
100%
14.2°
4
Windvlaag: -0.6 m/s
98%
17:00
15°
995.6 hPa 2.4 mm
100%
14.1°
3
Windvlaag: -0.9 m/s
96%
18:00
15°
995.5 hPa 3.3 mm
100%
14.0°
3
Windvlaag: -1.4 m/s
96%
19:00
14°
995.7 hPa 2.5 mm
100%
13.6°
3
Windvlaag: -0.9 m/s
98%
20:00
14°
995.9 hPa 2.7 mm
100%
13.5°
3
Windvlaag: -1 m/s
100%
21:00
14°
995.9 hPa 2.7 mm
100%
13.5°
3
Windvlaag: -1 m/s
99%
22:00
14°
995.9 hPa 2.8 mm
100%
13.5°
3
Windvlaag: -0.7 m/s
99%
23:00
14°
995.8 hPa 3.5 mm
93%
13.5°
3
Windvlaag: -0.5 m/s
99%
 07:06     19:04    Daglengte: 11:58 Woensdag 25 Sep
00:00
13°
995.6 hPa 3.4 mm
93%
13.5°
3
Windvlaag: -0.3 m/s
99%
01:00
13°
995.5 hPa 3.6 mm
90%
13.5°
2
Windvlaag: -0.2 m/s
100%
02:00
14°
995.5 hPa 3.8 mm
92%
13.4°
2
Windvlaag: 0.3 m/s
99%
03:00
14°
995.4 hPa 3.1 mm
96%
13.2°
3
Windvlaag: 0.4 m/s
97%
04:00
14°
995.3 hPa 3.2 mm
99%
13.1°
2
Windvlaag: 0.4 m/s
98%
05:00
13°
995.3 hPa 3.1 mm
97%
13.0°
2
Windvlaag: 0.1 m/s
93%
06:00
13°
995.2 hPa 3.0 mm
98%
13.0°
2
Windvlaag: 0.3 m/s
92%
07:00
13°
995.4 hPa 4.1 mm
48%
12.9°
2
Windvlaag: 0.6 m/s
89%
08:00
13°
995.7 hPa 4.5 mm
46%
13.0°
2
Windvlaag: -0.5 m/s
92%
09:00
14°
996.1 hPa 4.3 mm
29%
13.3°
2
Windvlaag: -1 m/s
82%
10:00
14°
996.5 hPa 4.0 mm
37%
13.6°
2
Windvlaag: -1.4 m/s
90%
11:00
14°
996.9 hPa 3.9 mm
88%
13.8°
2
Windvlaag: -1.1 m/s
87%
12:00
14°
997.2 hPa 4.0 mm
32%
13.8°
2
Windvlaag: -1 m/s
83%
13:00
15°
997.2 hPa 4.0 mm
27%
13.9°
2
Windvlaag: -0.4 m/s
84%
14:00
16°
997.9 hPa
82%
13.7°
2
Windvlaag: 0.5 m/s
75%
15:00
16°
997.9 hPa
85%
13.8°
3
Windvlaag: 0.4 m/s
80%
16:00
16°
997.9 hPa 6.5 mm
52%
13.8°
3
Windvlaag: 0.4 m/s
82%
17:00
16°
998.0 hPa 6.6 mm
91%
13.8°
3
Windvlaag: 0.4 m/s
85%
18:00
15°
998.0 hPa 6.8 mm
86%
13.8°
3
Windvlaag: 0.9 m/s
76%
19:00
15°
998.1 hPa 7.0 mm
45%
13.5°
1
Windvlaag: 0.5 m/s
66%
20:00
14°
1000.1 hPa 20.3 mm
100%
13.2°
1
Windvlaag: 7.5 m/s
57%
21:00
14°
1000.0 hPa 20.3 mm
100%
12.8°
2
Windvlaag: 9 m/s
51%
22:00
14°
1000.0 hPa 20.3 mm
100%
12.6°
2
Windvlaag: 11.5 m/s
47%
Temp/Neerslag /Baro Onweer/Dauwpunt
    Temp Baro Neerslag Dauwpunt Wind Bewolking  
 07:02     19:09    Daglengte: 12:07 Morgen
01:00
13°
1002.1 hPa 11.0 mm 13.2°
1
91%
04:00
14°
1002.0 hPa 2.7 mm 13.3°
1
90%
07:00
13°
1003.0 hPa   12.5°
1
77%
10:00
15°
1004.0 hPa   13.1°
1
70%
13:00
16°
1004.2 hPa   12.6°
4
21%
16:00
16°
1004.4 hPa   10.2°
4
50%
19:00
15°
1004.2 hPa   10.1°
3
77%
22:00
14°
1003.5 hPa   10.0°
4
72%
 07:04     19:07    Daglengte: 12:03 Dinsdag 24 Sep
01:00
14°
1001.6 hPa 7.0 mm 10.9°
4
80%
04:00
14°
999.7 hPa 2.4 mm 11.8°
4
77%
07:00
14°
998.2 hPa 8.2 mm 12.5°
3
86%
10:00
15°
997.8 hPa 7.4 mm 13.4°
3
81%
13:00
16°
997.1 hPa 4.7 mm 13.9°
4
83%
16:00
15°
995.8 hPa 5.3 mm 14.2°
4
98%
19:00
14°
995.7 hPa 8.2 mm 13.6°
3
98%
22:00
14°
995.9 hPa 8.3 mm 13.5°
3
99%
 07:06     19:04    Daglengte: 11:58 Woensdag 25 Sep
01:00
13°
995.5 hPa 10.6 mm 13.5°
2
100%
04:00
14°
995.3 hPa 10.1 mm 13.1°
2
98%
07:00
13°
995.4 hPa 10.2 mm 12.9°
2
89%
10:00
14°
996.5 hPa 12.7 mm 13.6°
2
90%
13:00
15°
997.2 hPa 11.9 mm 13.9°
2
84%
16:00
16°
997.9 hPa 6.5 mm 13.8°
3
82%
19:00
15°
998.1 hPa 20.4 mm 13.5°
1
66%
22:00
14°
1000.0 hPa 60.9 mm 12.6°
2
47%
 07:08     19:01    Daglengte: 11:53 Donderdag 26 Sep
01:00
13°
999.7 hPa 63.5 mm 12.2°
2
50%
04:00
13°
999.3 hPa 27.3 mm 11.9°
3
74%
07:00
13°
998.8 hPa 27.5 mm 11.6°
4
92%
10:00
14°
998.3 hPa 27.5 mm 12.7°
4
92%
13:00
16°
997.7 hPa 27.5 mm 14.0°
4
92%
16:00
15°
998.6 hPa 28.1 mm 12.0°
4
52%
19:00
14°
999.6 hPa 28.3 mm 9.9°
3
12%
22:00
13°
1000.4 hPa 28.3 mm 9.9°
3
41%
 07:10     18:59    Daglengte: 11:49 Vrijdag 27 Sep
01:00
12°
1001.1 hPa 28.3 mm 9.9°
3
70%
04:00
12°
1001.1 hPa 28.3 mm 9.6°
3
81%
07:00
11°
1001.0 hPa 28.3 mm 9.3°
3
91%
10:00
13°
1001.1 hPa 28.3 mm 9.4°
4
73%
13:00
15°
1001.1 hPa 28.6 mm 9.0°
5
55%
16:00
14°
1001.0 hPa 28.9 mm 9.6°
4
56%
19:00
13°
1001.1 hPa 30.2 mm 10.0°
4
57%
22:00
13°
1001.0 hPa 30.5 mm 10.0°
4
73%
 07:12     18:56    Daglengte: 11:44 Zaterdag 28 Sep
01:00
12°
1000.8 hPa 30.5 mm 10.1°
4
89%
04:00
11°
1000.6 hPa 30.5 mm 9.5°
3
68%
07:00
11°
1000.5 hPa 30.5 mm 9.0°
3
48%
10:00
12°
1000.9 hPa 30.5 mm 9.4°
6
53%
13:00
14°
1001.4 hPa 30.6 mm 9.8°
8
58%
16:00
13°
1001.7 hPa 31.9 mm 9.8°
8
49%
19:00
12°
1002.0 hPa 32.6 mm 9.7°
7
40%
22:00
12°
1002.9 hPa 32.6 mm 9.7°
6
33%
 07:14     18:53    Daglengte: 11:39 Zondag 29 Sep
01:00
11°
1003.6 hPa 32.6 mm 9.6°
5
25%
04:00
11°
1003.9 hPa 32.6 mm 9.5°
4
46%
07:00
10°
1004.3 hPa 32.6 mm 9.3°
4
67%
10:00
12°
1005.1 hPa 32.6 mm 9.6°
3
60%
13:00
14°
1005.9 hPa 32.9 mm 9.7°
2
52%
16:00
13°
1007.0 hPa 33.9 mm 9.4°
2
47%
19:00
13°
1008.3 hPa 37.0 mm 9.0°
1
42%
22:00
11°
1011.2 hPa   8.3°
2
26%
 07:16     18:51    Daglengte: 11:35 Maandag 30 Sep
01:00
10°
Voelt als: 8.6°
1014.1 hPa 77.2 mm 7.4°
2
9%
07:00
Voelt als: 7.3°
1018.2 hPa 77.3 mm 6.9°
2
24%
13:00
11°
1021.7 hPa 77.3 mm 7.1°
3
92%
19:00
11°
1022.9 hPa 77.8 mm 5.9°
3
92%
 07:18     18:48    Daglengte: 11:30 Dinsdag 01 Okt
01:00
Voelt als: 7.8°
1024.8 hPa 77.9 mm 5.0°
2
90%
07:00
Voelt als: 7.1°
1024.3 hPa 77.9 mm 5.2°
2
87%
13:00
12°
1024.2 hPa 77.9 mm 6.3°
2
91%
19:00
12°
1022.0 hPa 78.0 mm 8.7°
1
92%
 07:20     18:45    Daglengte: 11:25 Woensdag 02 Okt
01:00
11°
1020.4 hPa 78.0 mm 8.8°
2
75%
07:00
11°
1017.2 hPa 78.0 mm 8.9°
1
85%
13:00
14°
1015.8 hPa 78.0 mm 9.8°
4
92%
19:00
Voelt als: 7.5°
1010.8 hPa 1.9 mm 4.3°
1
70%
 07:22     18:43    Daglengte: 11:21 Donderdag 03 Okt
01:00
Voelt als: 4.5°
1011.9 hPa 0.8 mm 3.7°
2
51%
07:00
Voelt als: 5.2°
1011.6 hPa 0.8 mm 3.5°
1
58%
13:00
10°
Voelt als: 9.5°
1012.0 hPa 1.5 mm 5.0°
1
61%
19:00
Voelt als: 7.5°
1010.8 hPa 1.2 mm 5.2°
2
70%
 07:24     18:40    Daglengte: 11:16 Vrijdag 04 Okt
01:00
Voelt als: 6.4°
1010.3 hPa 2.1 mm 4.7°
1
62%
07:00
Voelt als: 5.8°
1010.1 hPa 1.8 mm 4.8°
1
59%
13:00
11°
1011.2 hPa 1.6 mm 6.4°
3
64%
19:00
Voelt als: 7.6°
1010.8 hPa 1.7 mm 6.0°
2
70%
 07:26     18:38    Daglengte: 11:12 Zaterdag 05 Okt
01:00
Voelt als: 6.1°
1011.3 hPa 1.2 mm 5.5°
2
69%
07:00
Voelt als: 5.5°
1010.4 hPa 0.9 mm 5.6°
3
65%
13:00
11°
1010.4 hPa 0.9 mm 7.5°
4
60%
19:00
10°
1009.8 hPa 0.6 mm 8.1°
3
71%
 07:28     18:35    Daglengte: 11:07 Zondag 06 Okt
01:00
Voelt als: 7.0°
1010.3 hPa 0.9 mm 7.3°
4
70%
07:00
Voelt als: 6.3°
1011.1 hPa 0.4 mm 6.7°
4
63%
13:00
13°
1013.2 hPa 0.5 mm 8.4°
5
60%
19:00
10°
1013.9 hPa 0.7 mm 7.9°
3
64%
 07:30     18:32    Daglengte: 11:02 Maandag 07 Okt
01:00
Voelt als: 6.5°
1014.4 hPa 0.6 mm 7.0°
4
51%
07:00
Voelt als: 5.8°
1014.0 hPa 0.4 mm 6.7°
4
53%
13:00
13°
1014.9 hPa 0.4 mm 8.7°
5
59%
19:00
11°
1015.6 hPa 0.5 mm 8.3°
3
62%
  CAPE Lifted Index Hail Supercell Tornado SRH 3km CL BTM PRES CL TOP PRES Swiss DWD icon SMHI TS
 07:00     19:12    Daglengte: 12:12 Vandaag
23:00 1 J/kg 1.7 K 0 % 0 % 0 % 0 m²/s² 0 0 1.73 55
 07:02     19:09    Daglengte: 12:07 Morgen
00:00 0 J/kg 2.1 K 0 % 0 % 0 % 0 m²/s² 0 0 2.1 53
01:00 1 J/kg 2.7 K 0 % 0 % 0 % 0 m²/s² 0 0 2.73 61
02:00 0 J/kg 3.3 K 0 % 0 % 0 % 0 m²/s² 0 0 3.57 45
03:00 0 J/kg 3.8 K 0 % 0 % 0 % 0 m²/s² 0 0 4.07 3
04:00 0 J/kg 3.7 K 0 % 0 % 0 % 0 m²/s² 0 0 6.49 3
05:00 0 J/kg 2.8 K 0 % 0 % 0 % 0 m²/s² 0 0 6.94 3
06:00 0 J/kg 2.6 K 0 % 0 % 0 % 0 m²/s² 0 0 6.62 2
07:00 0 J/kg 2.1 K 0 % 0 % 0 % 0 m²/s² 0 0 5.43 2
08:00 8 J/kg 1.6 K 0 % 0 % 0 % 0 m²/s² 0 0 4.27 3
09:00 11 J/kg 2.0 K 0 % 0 % 0 % 0 m²/s² 0 0 4.28 3
10:00 33 J/kg 2.2 K 0 % 0 % 0 % 0 m²/s² 0 0 4.69 3
11:00 35 J/kg 1.7 K 0 % 0 % 0 % 0 m²/s² 0 0 4.58 2
12:00 56 J/kg 1.3 K 0 % 0 % 0 % 0 m²/s² 0 0 3.67 2
13:00 66 J/kg 1.1 K 0 % 0 % 0 % 0 m²/s² 0 0 2.75 80
14:00 54 J/kg 1.6 K 0 % 0 % 0 % 0 m²/s² 0 0 3.37 80
15:00 21 J/kg 3.0 K 0 % 0 % 0 % 0 m²/s² 0 0 5.16 80
16:00 1 J/kg 4.6 K 0 % 0 % 0 % 0 m²/s² 0 0 9.25 2
17:00 0 J/kg 5.6 K 0 % 0 % 0 % 0 m²/s² 0 0 12.44 3
18:00 0 J/kg 6.9 K 0 % 0 % 0 % 0 m²/s² 0 0 12.18 3
19:00 0 J/kg 6.6 K 0 % 0 % 0 % 0 m²/s² 0 0 12.03 3
20:00 0 J/kg 5.9 K 0 % 0 % 0 % 0 m²/s² 0 0 8.51 3
21:00 0 J/kg 5.3 K 0 % 0 % 0 % 0 m²/s² 0 0 7.22 3
22:00 0 J/kg 4.1 K 0 % 0 % 0 % 0 m²/s² 0 0 4.22 1
23:00 0 J/kg 4.4 K 0 % 0 % 0 % 0 m²/s² 0 0 4.43 2
 07:04     19:07    Daglengte: 12:03 Dinsdag 24 Sep
00:00 0 J/kg 2.4 K 0 % 0 % 0 % 0 m²/s² 0 0 2.43 3
01:00 0 J/kg 1.7 K 0 % 0 % 0 % 0 m²/s² 0 0 2 3
02:00 0 J/kg 0.6 K 0 % 0 % 0 % 0 m²/s² 0 0 1.83 61
03:00 0 J/kg -0.2 K 0 % 0 % 0 % 0 m²/s² 0 0 1.18 61
04:00 0 J/kg -0.5 K 0 % 0 % 0 % 0 m²/s² 0 0 0.43 61
05:00 0 J/kg -0.6 K 0 % 0 % 0 % 0 m²/s² 0 0 -0.3 80
06:00 0 J/kg 0.1 K 0 % 0 % 0 % 0 m²/s² 0 0 0.22 3
07:00 0 J/kg 0.0 K 0 % 0 % 0 % 0 m²/s² 0 0 0.33 3
08:00 0 J/kg 0.0 K 0 % 0 % 0 % 0 m²/s² 0 0 1.08 3
09:00 15 J/kg -0.4 K 0 % 0 % 0 % 0 m²/s² 0 0 0.56 3
10:00 78 J/kg -0.1 K 0 % 0 % 0 % 0 m²/s² 0 0 0.68 3
11:00 188 J/kg -0.3 K 0 % 0 % 0 % 0 m²/s² 0 0 0.36 61
12:00 221 J/kg -0.6 K 0 % 0 % 0 % 0 m²/s² 0 0 0.33 3
13:00 209 J/kg -1.2 K 0 % 0 % 0 % 0 m²/s² 0 0 0.18 80
14:00 275 J/kg -1.1 K 0 % 0 % 0 % 0 m²/s² 0 0 0.28 80
15:00 325 J/kg -1.4 K 0 % 0 % 0 % 0 m²/s² 0 0 0.34 80
16:00 250 J/kg -1.1 K 0 % 0 % 0 % 0 m²/s² 0 0 0.28 3
17:00 196 J/kg -0.8 K 0 % 0 % 0 % 0 m²/s² 0 0 0.49 80
18:00 114 J/kg -0.8 K 0 % 0 % 0 % 0 m²/s² 0 0 -0.5 3
19:00 37 J/kg 0.9 K 0 % 0 % 0 % 0 m²/s² 0 0 1.02 80
20:00 32 J/kg 1.1 K 0 % 0 % 0 % 0 m²/s² 0 0 1.19 80
21:00 8 J/kg 0.9 K 0 % 0 % 0 % 0 m²/s² 0 0 1.02 45
22:00 19 J/kg 1.5 K 0 % 0 % 0 % 0 m²/s² 0 0 1.68 45
23:00 2 J/kg 1.5 K 0 % 0 % 0 % 0 m²/s² 0 0 1.98 61
 07:06     19:04    Daglengte: 11:58 Woensdag 25 Sep
00:00 15 J/kg 1.9 K 0 % 0 % 0 % 0 m²/s² 0 0 2.47 45
01:00 9 J/kg 1.7 K 0 % 0 % 0 % 0 m²/s² 0 0 2.57 45
02:00 2 J/kg 1.7 K 0 % 0 % 0 % 0 m²/s² 0 0 2.45 45
03:00 0 J/kg 1.4 K 0 % 0 % 0 % 0 m²/s² 0 0 2.63 61
04:00 0 J/kg 1.0 K 0 % 0 % 0 % 0 m²/s² 0 0 2.56 61
05:00 0 J/kg 0.9 K 0 % 0 % 0 % 0 m²/s² 0 0 2.82 61
06:00 0 J/kg 1.0 K 0 % 0 % 0 % 0 m²/s² 0 0 2.71 61
07:00 0 J/kg 1.5 K 0 % 0 % 0 % 0 m²/s² 0 0 3.54 3
08:00 0 J/kg 1.4 K 0 % 0 % 0 % 0 m²/s² 0 0 3.83 3
09:00 0 J/kg 1.5 K 0 % 0 % 0 % 0 m²/s² 0 0 4.02 2
10:00 3 J/kg 2.0 K 0 % 0 % 0 % 0 m²/s² 0 0 4.43 3
11:00 10 J/kg 1.6 K 0 % 0 % 0 % 0 m²/s² 0 0 4.12 3
12:00 20 J/kg 1.2 K 0 % 0 % 0 % 0 m²/s² 0 0 3.57 3
13:00 27 J/kg 0.9 K 0 % 0 % 0 % 0 m²/s² 0 0 3.15 3
14:00 40 J/kg 0.5 K 0 % 0 % 0 % 0 m²/s² 0 0 2.96 3
15:00 70 J/kg 0.2 K 0 % 0 % 0 % 0 m²/s² 0 0 2.45 3
16:00 129 J/kg 0.2 K 0 % 0 % 0 % 0 m²/s² 0 0 1.7 3
17:00 155 J/kg 0.4 K 0 % 0 % 0 % 0 m²/s² 0 0 1 3
18:00 38 J/kg 2.0 K 0 % 0 % 0 % 0 m²/s² 0 0 2.39 3
19:00 6 J/kg 2.1 K 0 % 0 % 0 % 0 m²/s² 0 0 2.85 3
20:00 12 J/kg 2.9 K 0 % 0 % 0 % 0 m²/s² 0 0 3.5
21:00 0 J/kg 4.5 K 0 % 0 % 0 % 0 m²/s² 0 0 6.48
22:00 0 J/kg 5.6 K 0 % 0 % 0 % 0 m²/s² 0 0 7.22
Temp Baro Wind Neerslag
  EWN Forecast EWN WRFDA DWD ICON FMI HIRLAM MET Norway GFS
 07:02     19:09    Daglengte: 12:07 Morgen
01:00 13.5° 1002.1 hPa 1.1 m/s 11.0 mm 13.5° 1002.2 hPa 0.6 m/s 18.7 mm 13.5° 1002.7 hPa 0.8 m/s 4.1 mm 13.5° 1001.8 hPa 1.6 m/s 0.0 mm 13.4° 1001.9 hPa 1.4 m/s 9.4 mm 13.4° 1002.5 hPa 1.3 m/s
04:00 13.7° 1002.0 hPa 1.4 m/s 2.7 mm 13.2° 1001.6 hPa 0.9 m/s 23.2 mm 13.8° 1003.3 hPa 0.8 m/s 0.1 mm 13.8° 1001.7 hPa 1.5 m/s 0.0 mm 13.7° 1001.8 hPa 2.5 m/s 3.3 mm 13.5° 1002.3 hPa 0.4 m/s
07:00 13.2° 1003.0 hPa 1.4 m/s 0.0 mm 13.2° 1002.5 hPa 1.0 m/s 24.1 mm 13.0° 1003.8 hPa 1.0 m/s 0.0 mm 13.4° 1002.9 hPa 1.7 m/s 0.0 mm 13.1° 1003.0 hPa 1.9 m/s 0.0 mm 13.0° 1003.0 hPa 0.2 m/s
10:00 14.7° 1004.0 hPa 1.1 m/s 0.0 mm 14.8° 1002.7 hPa 1.4 m/s 25.0 mm 15.6° 1004.6 hPa 0.7 m/s 0.0 mm 14.3° 1003.6 hPa 1.9 m/s 0.0 mm 14.8° 1004.1 hPa 1.1 m/s 0.0 mm 15.1° 1003.4 hPa 1.3 m/s
13:00 16.5° 1004.2 hPa 3.7 m/s 0.0 mm 16.4° 1003.1 hPa 4.4 m/s 25.3 mm 18.7° 1004.4 hPa 2.2 m/s 0.3 mm 15.3° 1004.0 hPa 2.3 m/s 0.0 mm 16.3° 1004.2 hPa 5.1 m/s 0.0 mm 16.9° 1004.4 hPa 3.8 m/s
16:00 16.5° 1004.4 hPa 4.3 m/s 0.0 mm 16.2° 1003.9 hPa 4.8 m/s 25.3 mm 17.5° 1004.3 hPa 3.8 m/s 0.8 mm 16.3° 1003.8 hPa 4.4 m/s 0.0 mm 16.3° 1004.7 hPa 4.5 m/s 0.0 mm 16.5° 1004.6 hPa 4.7 m/s
19:00 14.8° 1004.2 hPa 2.6 m/s 0.0 mm 14.6° 1003.0 hPa 3.0 m/s 25.3 mm 15.3° 1003.9 hPa 1.6 m/s 0.0 mm 14.7° 1004.6 hPa 3.9 m/s 0.0 mm 14.3° 1004.3 hPa 2.5 m/s 0.0 mm 14.0° 1003.6 hPa 3.1 m/s
22:00 14.1° 1003.5 hPa 3.6 m/s 0.0 mm 14.5° 1002.8 hPa 4.7 m/s 25.3 mm 13.6° 1003.3 hPa 1.8 m/s 0.0 mm 12.3° 1005.0 hPa 3.5 m/s 0.0 mm 14.2° 1003.5 hPa 3.5 m/s 0.0 mm 14.2° 1003.4 hPa 4.7 m/s
 07:04     19:07    Daglengte: 12:03 Dinsdag 24 Sep
01:00 13.9° 1001.6 hPa 3.9 m/s 7.0 mm 13.8° 1001.4 hPa 4.4 m/s 28.6 mm 13.8° 1001.0 hPa 2.0 m/s 0.0 mm 13.5° 1003.2 hPa 5.2 m/s 0.0 mm 13.8° 1001.9 hPa 3.2 m/s 1.9 mm 14.0° 1001.9 hPa 4.2 m/s
04:00 13.5° 999.7 hPa 3.6 m/s 2.4 mm 13.8° 999.5 hPa 3.8 m/s 30.3 mm 13.6° 998.7 hPa 3.0 m/s 1.0 mm 13.4° 1001.9 hPa 4.8 m/s 0.0 mm 13.0° 999.8 hPa 3.2 m/s 0.6 mm 13.5° 1000.0 hPa 2.1 m/s
07:00 13.5° 998.2 hPa 3.4 m/s 8.2 mm 13.8° 997.8 hPa 3.0 m/s 33.3 mm 13.7° 997.6 hPa 2.4 m/s 0.6 mm 13.3° 1001.0 hPa 4.3 m/s 0.0 mm 13.2° 998.2 hPa 3.2 m/s 3.4 mm 12.8° 998.6 hPa 2.1 m/s
10:00 14.8° 997.8 hPa 2.9 m/s 7.4 mm 15.1° 997.4 hPa 2.8 m/s 36.5 mm 15.5° 997.0 hPa 2.1 m/s 0.1 mm 14.0° 1000.9 hPa 3.3 m/s 0.0 mm 14.8° 997.6 hPa 2.9 m/s 1.7 mm 15.2° 997.8 hPa 1.7 m/s
13:00 15.8° 997.1 hPa 3.5 m/s 4.7 mm 15.8° 996.1 hPa 5.7 m/s 37.2 mm 16.2° 996.7 hPa 1.9 m/s 0.7 mm 14.5° 1000.3 hPa 3.7 m/s 0.0 mm 16.4° 996.8 hPa 3.3 m/s 0.6 mm 17.0° 996.6 hPa 3.2 m/s
16:00 15.3° 995.8 hPa 3.7 m/s 5.3 mm 16.3° 994.5 hPa 5.9 m/s 37.8 mm 16.1° 995.6 hPa 1.4 m/s 0.5 mm 15.3° 995.9 hPa 3.7 m/s 1.3 mm 16.0° 995.1 hPa 5.2 m/s
19:00 14.0° 995.7 hPa 3.2 m/s 8.2 mm 14.4° 993.9 hPa 6.5 m/s 40.3 mm 14.8° 995.3 hPa 0.9 m/s 1.1 mm 13.9° 996.1 hPa 3.0 m/s 2.6 mm 13.9° 994.3 hPa 4.4 m/s
22:00 13.6° 995.9 hPa 3.2 m/s 8.3 mm 13.9° 994.0 hPa 5.2 m/s 46.8 mm 14.0° 995.6 hPa 0.5 m/s 0.8 mm 13.4° 996.1 hPa 3.4 m/s 2.0 mm 13.5° 995.1 hPa 4.4 m/s
 07:06     19:04    Daglengte: 11:58 Woensdag 25 Sep
01:00 13.5° 995.5 hPa 2.0 m/s 10.6 mm 13.5° 993.4 hPa 2.0 m/s 49.7 mm 13.3° 994.9 hPa 0.8 m/s 0.2 mm 13.5° 995.9 hPa 3.3 m/s 1.1 mm 13.1° 994.8 hPa 0.9 m/s
04:00 13.6° 995.3 hPa 2.1 m/s 10.1 mm 13.6° 994.4 hPa 1.9 m/s 54.9 mm 13.2° 994.2 hPa 0.6 m/s 0.7 mm 13.6° 995.7 hPa 3.8 m/s 2.5 mm 13.3° 995.7 hPa 2.9 m/s
07:00 13.4° 995.4 hPa 2.3 m/s 10.2 mm 12.3° 995.1 hPa 2.8 m/s 56.6 mm 12.9° 993.7 hPa 1.1 m/s 0.5 mm 13.5° 996.1 hPa 2.5 m/s 1.3 mm 13.3° 996.0 hPa 2.2 m/s
10:00 13.9° 996.5 hPa 2.4 m/s 12.7 mm 13.8° 996.5 hPa 2.3 m/s 56.7 mm 15.1° 995.1 hPa 2.3 m/s 0.0 mm 13.8° 997.7 hPa 1.5 m/s 1.0 mm 13.7° 997.6 hPa 1.6 m/s
13:00 15.1° 997.2 hPa 2.5 m/s 11.9 mm 15.1° 996.9 hPa 2.7 m/s 56.7 mm 16.9° 995.4 hPa 3.0 m/s 0.0 mm 14.9° 999.5 hPa 1.2 m/s 0.6 mm 15.1° 998.5 hPa 1.2 m/s
16:00 16.0° 997.9 hPa 2.7 m/s 6.5 mm 16.0° 996.2 hPa 1.5 m/s 57.2 mm 16.9° 994.8 hPa 3.4 m/s 0.1 mm 15.7° 1000.1 hPa 2.7 m/s 0.4 mm 15.2° 997.9 hPa 1.4 m/s
19:00 14.7° 998.1 hPa 1.5 m/s 20.4 mm 14.4° 995.8 hPa 0.8 m/s 59.9 mm 15.7° 994.6 hPa 3.4 m/s 0.1 mm 14.5° 1000.8 hPa 1.2 m/s 0.8 mm 14.3° 997.6 hPa 2.2 m/s
22:00 13.8° 1000.0 hPa 1.8 m/s 60.9 mm 13.0° 994.5 hPa 3.6 m/s 60.9 mm 13.9° 1001.0 hPa 1.5 m/s 13.1° 995.4 hPa 2.9 m/s
 07:08     19:01    Daglengte: 11:53 Donderdag 26 Sep
01:00 13.4° 999.7 hPa 2.3 m/s 63.5 mm 13.3° 991.6 hPa 4.5 m/s 63.5 mm 13.4° 1001.1 hPa 1.9 m/s 13.1° 992.6 hPa 5.3 m/s
04:00 13.2° 999.3 hPa 3.2 m/s 27.3 mm 13.1° 1000.0 hPa 3.1 m/s 13.6° 992.1 hPa 4.1 m/s 27.3 mm
07:00 12.9° 998.8 hPa 3.8 m/s 27.5 mm 13.0° 999.4 hPa 3.7 m/s 12.2° 992.2 hPa 5.2 m/s 27.5 mm
10:00 14.3° 998.3 hPa 3.8 m/s 27.5 mm 14.4° 998.7 hPa 3.8 m/s 13.1° 994.0 hPa 4.6 m/s 27.5 mm
13:00 15.7° 997.7 hPa 4.0 m/s 27.5 mm 15.8° 998.0 hPa 3.8 m/s 14.8° 994.5 hPa 6.2 m/s 27.5 mm
16:00 15.0° 998.6 hPa 3.5 m/s 28.1 mm 14.9° 999.0 hPa 3.3 m/s 15.2° 994.2 hPa 5.7 m/s 28.1 mm
19:00 14.0° 999.6 hPa 3.0 m/s 28.3 mm 14.1° 1000.1 hPa 2.9 m/s 13.4° 994.0 hPa 4.0 m/s 28.3 mm
22:00 12.9° 1000.4 hPa 2.7 m/s 28.3 mm 13.0° 1000.9 hPa 2.6 m/s 11.8° 994.7 hPa 3.8 m/s 28.3 mm
 07:10     18:59    Daglengte: 11:49 Vrijdag 27 Sep
01:00 11.8° 1001.1 hPa 2.6 m/s 28.3 mm 11.9° 1001.7 hPa 2.4 m/s 10.8° 994.8 hPa 4.3 m/s 28.3 mm
04:00 11.5° 1001.1 hPa 2.5 m/s 28.3 mm 11.7° 1001.7 hPa 2.5 m/s 10.3° 994.4 hPa 2.8 m/s 28.3 mm
07:00 11.3° 1001.0 hPa 2.6 m/s 28.3 mm 11.4° 1001.7 hPa 2.6 m/s 10.5° 993.9 hPa 2.7 m/s 28.3 mm
10:00 13.4° 1001.1 hPa 3.7 m/s 28.3 mm 13.4° 1001.8 hPa 3.7 m/s 12.8° 993.1 hPa 3.3 m/s 28.3 mm
13:00 15.4° 1001.1 hPa 4.8 m/s 28.6 mm 15.5° 1001.9 hPa 4.8 m/s 13.8° 992.3 hPa 4.2 m/s 28.6 mm
16:00 14.2° 1001.0 hPa 4.1 m/s 28.9 mm 14.2° 1002.0 hPa 4.2 m/s 14.0° 991.1 hPa 3.5 m/s 28.9 mm
19:00 12.9° 1001.1 hPa 3.6 m/s 30.2 mm 13.0° 1002.0 hPa 3.5 m/s 12.3° 991.1 hPa 4.4 m/s 30.2 mm
22:00 12.5° 1001.0 hPa 3.5 m/s 30.5 mm 12.7° 1001.8 hPa 3.5 m/s 10.8° 991.9 hPa 3.8 m/s 30.5 mm
 07:12     18:56    Daglengte: 11:44 Zaterdag 28 Sep
01:00 12.2° 1000.8 hPa 3.5 m/s 30.5 mm 12.4° 1001.6 hPa 3.5 m/s 10.5° 991.6 hPa 3.5 m/s 30.5 mm
04:00 11.4° 1000.6 hPa 3.4 m/s 30.5 mm 11.6° 1001.5 hPa 3.4 m/s 9.5° 991.6 hPa 2.9 m/s 30.5 mm
07:00 10.7° 1000.5 hPa 3.3 m/s 30.5 mm 10.8° 1001.3 hPa 3.3 m/s 9.3° 992.1 hPa 3.0 m/s 30.5 mm
10:00 12.3° 1000.9 hPa 5.8 m/s 30.5 mm 12.4° 1001.6 hPa 6.0 m/s 11.7° 993.5 hPa 4.2 m/s 30.5 mm
13:00 14.1° 1001.4 hPa 8.4 m/s 30.6 mm 14.0° 1001.9 hPa 8.7 m/s 15.2° 995.4 hPa 4.7 m/s 30.6 mm
16:00 13.1° 1001.7 hPa 7.6 m/s 31.9 mm 13.0° 1002.1 hPa 7.7 m/s 14.6° 996.5 hPa 6.9 m/s 31.9 mm
19:00 12.0° 1002.0 hPa 6.6 m/s 32.6 mm 12.0° 1002.4 hPa 6.7 m/s 12.0° 997.7 hPa 5.2 m/s 32.6 mm
22:00 11.5° 1002.9 hPa 5.7 m/s 32.6 mm 11.6° 1003.2 hPa 5.8 m/s 10.5° 999.6 hPa 4.0 m/s 32.6 mm
 07:14     18:53    Daglengte: 11:39 Zondag 29 Sep
01:00 11.1° 1003.6 hPa 4.8 m/s 32.6 mm 11.2° 1004.0 hPa 4.9 m/s 10.1° 999.7 hPa 3.5 m/s 32.6 mm
04:00 10.6° 1003.9 hPa 4.1 m/s 32.6 mm 10.7° 1004.3 hPa 4.2 m/s 10.0° 999.9 hPa 2.6 m/s 32.6 mm
07:00 10.1° 1004.3 hPa 3.5 m/s 32.6 mm 10.2° 1004.6 hPa 3.6 m/s 9.4° 1000.4 hPa 2.6 m/s 32.6 mm
10:00 11.8° 1005.1 hPa 3.0 m/s 32.6 mm 11.9° 1005.5 hPa 3.0 m/s 10.7° 1000.8 hPa 2.6 m/s 32.6 mm
13:00 13.7° 1005.9 hPa 2.4 m/s 32.9 mm 13.7° 1006.3 hPa 2.4 m/s 14.0° 1001.4 hPa 2.6 m/s 32.9 mm
16:00 13.4° 1007.0 hPa 1.8 m/s 33.9 mm 13.5° 1007.5 hPa 1.5 m/s 12.4° 1001.5 hPa 4.7 m/s 33.9 mm
19:00 13.0° 1008.3 hPa 0.9 m/s 37.0 mm 13.3° 1008.8 hPa 0.6 m/s 10.1° 1003.0 hPa 3.6 m/s 37.0 mm
22:00 11.5° 1011.2 hPa 1.8 m/s 38.6 mm 11.8° 1011.7 hPa 1.4 m/s 8.2° 1006.3 hPa 5.6 m/s 38.6 mm
 07:16     18:51    Daglengte: 11:35 Maandag 30 Sep
01:00 9.8° 1014.1 hPa 2.5 m/s 38.7 mm 10.2° 1014.6 hPa 2.2 m/s 5.7° 1008.2 hPa 5.3 m/s 38.7 mm
07:00 8.7° 1018.2 hPa 2.4 m/s 38.7 mm 9.1° 1018.8 hPa 2.2 m/s 4.0° 1011.1 hPa 4.5 m/s 38.7 mm
13:00 11.4° 1021.7 hPa 3.0 m/s 38.7 mm 11.6° 1022.5 hPa 2.9 m/s 8.7° 1012.5 hPa 4.5 m/s 38.7 mm
19:00 10.6° 1022.9 hPa 2.8 m/s 39.0 mm 10.9° 1023.9 hPa 2.6 m/s 6.9° 1011.8 hPa 4.5 m/s 39.0 mm
 07:18     18:48    Daglengte: 11:30 Dinsdag 01 Okt
01:00 8.9° 1024.8 hPa 2.2 m/s 39.0 mm 9.4° 1026.0 hPa 2.2 m/s 3.8° 1011.4 hPa 2.6 m/s 39.0 mm
07:00 8.3° 1024.3 hPa 2.1 m/s 39.0 mm 8.8° 1025.6 hPa 2.0 m/s 2.5° 1010.5 hPa 3.0 m/s 39.0 mm
13:00 12.1° 1024.2 hPa 1.6 m/s 39.0 mm 12.4° 1025.3 hPa 1.4 m/s 8.9° 1012.1 hPa 3.3 m/s 39.0 mm
19:00 11.9° 1022.0 hPa 1.2 m/s 39.0 mm 12.3° 1022.8 hPa 1.1 m/s 7.4° 1013.3 hPa 2.4 m/s 39.0 mm
 07:20     18:45    Daglengte: 11:25 Woensdag 02 Okt
01:00 11.0° 1020.4 hPa 1.8 m/s 39.0 mm 11.6° 1020.9 hPa 1.9 m/s 4.4° 1015.0 hPa 1.2 m/s 39.0 mm
07:00 10.9° 1017.2 hPa 1.2 m/s 39.0 mm 11.6° 1017.4 hPa 1.3 m/s 3.2° 1014.7 hPa 0.5 m/s 39.0 mm
13:00 14.2° 1015.8 hPa 3.8 m/s 39.0 mm 14.6° 1015.8 hPa 4.1 m/s 9.4° 1015.8 hPa 0.5 m/s 39.0 mm
19:00 7.8° 1010.8 hPa 1.3 m/s 1.9 mm
 07:22     18:43    Daglengte: 11:21 Donderdag 03 Okt
01:00 5.9° 1011.9 hPa 1.9 m/s 0.8 mm
07:00 5.5° 1011.6 hPa 1.0 m/s 0.8 mm
13:00 9.7° 1012.0 hPa 1.3 m/s 1.5 mm
19:00 8.3° 1010.8 hPa 1.7 m/s 1.2 mm
 07:24     18:40    Daglengte: 11:16 Vrijdag 04 Okt
01:00 6.7° 1010.3 hPa 1.1 m/s 2.1 mm
07:00 6.5° 1010.1 hPa 1.4 m/s 1.8 mm
13:00 10.8° 1011.2 hPa 3.0 m/s 1.6 mm
19:00 8.9° 1010.8 hPa 2.4 m/s 1.7 mm
 07:26     18:38    Daglengte: 11:12 Zaterdag 05 Okt
01:00 7.6° 1011.3 hPa 2.3 m/s 1.2 mm
07:00 7.3° 1010.4 hPa 2.7 m/s 0.9 mm
13:00 11.4° 1010.4 hPa 4.2 m/s 0.9 mm
19:00 10.2° 1009.8 hPa 3.1 m/s 0.6 mm
 07:28     18:35    Daglengte: 11:07 Zondag 06 Okt
01:00 9.0° 1010.3 hPa 3.7 m/s 0.9 mm
07:00 8.6° 1011.1 hPa 3.9 m/s 0.4 mm
13:00 12.7° 1013.2 hPa 4.9 m/s 0.5 mm
19:00 10.5° 1013.9 hPa 3.3 m/s 0.7 mm
 07:30     18:32    Daglengte: 11:02 Maandag 07 Okt
01:00 8.6° 1014.4 hPa 3.6 m/s 0.6 mm
07:00 8.1° 1014.0 hPa 3.8 m/s 0.4 mm
13:00 12.8° 1014.9 hPa 4.8 m/s 0.4 mm
19:00 10.5° 1015.6 hPa 3.0 m/s 0.5 mm
FMI Hirlam - 7.5 km EWN WRFDA - 12 km DWD ICON - 7 km GFS - 25 km Basiskaart






























































Updatetijd (Europe/Brussels) Resolutie Lengte Stap
FMI Hirlam 19:00, 01:00, 07:00, 13:00 7.5 km 49h 1h
EWN WRFDA 21:30, 03:30, 09:30, 15:30 12 km 73h 1h
DWD ICON 17:45, 23:45, 05:45, 11:45 7 km 75h 1h
GFS 20:30, 02:30, 08:30, 14:30 25 km 237h 3h
30+ mm
25-30 mm
20-25 mm
15-20 mm
10-15 mm
6-10 mm
4-6 mm
2-4 mm
1-2 mm
0.5-1 mm
0.2-0.5 mm
0.1-0.2 mm
30+ mm
25-30 mm
20-25 mm
15-20 mm
10-15 mm
6-10 mm
4-6 mm
2-4 mm
1-2 mm
0.5-1 mm
0.2-0.5 mm
0.1-0.2 mm
Sneeuwval
Natte sneeuw
Hagel
Vorst
30+ mm
25-30 mm
20-25 mm
15-20 mm
10-15 mm
6-10 mm
4-6 mm
2-4 mm
1-2 mm
0.5-1 mm
0.2-0.5 mm
0.1-0.2 mm
Sneeuwval
Natte sneeuw
Hagel
Vorst
Onweer
50 mm
40 mm
30 mm
26 mm
22 mm
18 mm
14 mm
10 mm
9 mm
8 mm
7 mm
6 mm
5 mm
4.5 mm
4 mm
3.5 mm
3 mm
2.5 mm
2 mm
1.5 mm
1 mm
0.8 mm
0.6 mm
0.4 mm
0.2 mm
0.05 mm
35°
30°
25°
20°
15°
10°
-5°
-10°
-15°
-20°
-25°
-30°
-35°
33> m/s
29 m/s
25 m/s
21 m/s
17 m/s
14 m/s
11 m/s
8 m/s
5 m/s
3 m/s
0 m/s
2600 J/kg
2400 J/kg
2200 J/kg
2000 J/kg
1800 J/kg
1600 J/kg
1400 J/kg
1200 J/kg
1000 J/kg
800 J/kg
600 J/kg
400 J/kg
200 J/kg
70 dBZ
65 dBZ
60 dBZ
55 dBZ
50 dBZ
45 dBZ
40 dBZ
35 dBZ
30 dBZ
25 dBZ
20 dBZ
15 dBZ
10 dBZ
5 dBZ
-1 K
-2 K
-3 K
-4 K
-5 K
-6 K
-7 K
-8 K
-9 K
950 m²/s²
900 m²/s²
850 m²/s²
800 m²/s²
750 m²/s²
700 m²/s²
650 m²/s²
600 m²/s²
550 m²/s²
500 m²/s²
450 m²/s²
400 m²/s²
350 m²/s²
300 m²/s²
250 m²/s²
200 m²/s²
150 m²/s²
100 m²/s²
46 m/s
44 m/s
42 m/s
40 m/s
38 m/s
36 m/s
34 m/s
32 m/s
30 m/s
28 m/s
26 m/s
24 m/s
22 m/s
20 m/s
16 m/s
12 m/s
8 m/s
4 m/s
30 m/s
28 m/s
26 m/s
24 m/s
22 m/s
20 m/s
18 m/s
16 m/s
14 m/s
12 m/s
10 m/s
8 m/s
6 m/s
4 m/s
2 m/s
3.0
2.8
2.6
2.4
2.2
2.0
1.8
1.6
1.4
1.2
1.0
0.8
0.6
0.4
0.2
15
14
13
12
11
10
9
8
7
6
5
4
3
2
1
90%
80%
70%
60%
50%
40%
30%
20%
10%
42
40
38
36
34
32
30
28
26
24
22
20
18
16
14
12
90+ cm
80-90 cm
70-80 cm
60-70 cm
50-60 cm
40-50 cm
30-40 cm
20-30 cm
10-20 cm